Regional Weather Roundup
Issued by NWS Sterling, VA

Home | Current Version | Previous Version | Graphics & Text | Print | Product List | Glossary On
Versions: 1 2 3 4 5 6 7 8 9 10 11 12 13 14 15 16 17 18 19 20 21 22 23 24 25 26 27 28 29 30 31 32 33 34 35 36 37 38 39 40 41 42 43 44 45 46 47 48 49 50
000
ASUS41 KLWX 231410
RWRLWX

REGIONAL WEATHER ROUNDUP
NATIONAL WEATHER SERVICE BALTIMORE MD/WASHINGTON DC
1000 AM EDT SAT AUG 23 2014

Note: "FAIR" indicates few or no clouds below 12,000 feet
with no significant weather and/or obstructions to visibility.
 TC=TEMPERATURE CELSIUS

 * =Non NWS site. Station does not report precipitation (e.g. rain,
    snow, etc.), thunder, or fog.

DCZ001-MDZ009-015-VAZ040>042-051-053>054-231500-
WASHINGTON METRO
  /KDAA//-FT BELVOIR

CITY           SKY/WX    TMP DP  RH WIND       PRES   REMARKS
WASHINGTON NAT CLOUDY    74  65  73 NE8       30.04R
DULLES         CLOUDY    69  66  90 SE3       30.03S
ANDREWS AFB    CLOUDY    72  66  83 NE6       30.03R
QUANTICO       CLOUDY    73  65  75 SE7       30.03R
COLLEGE PARK*  CLOUDY    70  68  94 CALM      30.03S
LEESBURG*      CLOUDY    70  68  94 CALM      30.04S
GAITHERSBURG*  CLOUDY    66  64  94 E5        30.08S

$$

MDZ006>007-011-014-231500-
BALTIMORE METRO

CITY           SKY/WX    TMP DP  RH WIND       PRES   REMARKS
BWI AIRPORT    LGT RAIN  70  66  87 E9        30.04R
MD SCIENCE CTR   N/A     72  65  78 MISG      30.04S
ANNAPOLIS      LGT RAIN  72  65  78 E5        30.03R
FORT MEADE*    PTSUNNY   70  64  83 NE6       30.06S

$$

MDZ012-015-019>023-231500-
MARYLAND EASTERN SHORE

CITY           SKY/WX    TMP DP  RH WIND       PRES   REMARKS
OCEAN CITY     MOSUNNY   76  68  76 E10       30.01S
SALISBURY      MOSUNNY   77  66  68 E8        30.01S
BAY BRIDGE AP*   N/A     72  64  78 E7        30.03R
CAMBRIDGE*     PTSUNNY   77  66  69 E5        30.02R
EASTON*        MOSUNNY   75  72  88 CALM      30.06R

$$

MDZ017>025-231500-
SOUTHERN MARYLAND

CITY           SKY/WX    TMP DP  RH WIND       PRES   REMARKS
PATUXENT RIVER PTSUNNY   75  65  70 E10       30.01R
ST INIGOES     CLOUDY    76  65  68 E9        30.00S
LEONARDTOWN*   PTSUNNY   73  63  68 E8        30.03S

$$

MDZ003>005-231500-
NORTH CENTRAL MARYLAND

CITY           SKY/WX    TMP DP  RH WIND       PRES   REMARKS
FREDERICK*     CLOUDY   N/A N/A N/A NE3       30.07S
HAGERSTOWN APT RAIN      67  64  90 E8        30.04R FOG
WESTMINSTER*   RAIN      66  64  94 CALM      30.06S

$$

MDZ501>502-231500-
WESTERN MARYLAND

CITY           SKY/WX    TMP DP  RH WIND       PRES   REMARKS
OAKLAND*       CLOUDY    66 N/A N/A CALM      30.09S HAZE
CUMBERLAND*    CLOUDY    73  72  94 CALM      30.04F

$$

VAZ025>031-231500-
SHENANDOAH VALLEY

CITY           SKY/WX    TMP DP  RH WIND       PRES   REMARKS
WINCHESTER*    DRIZZLE   70  68  94 E5        30.02S
STAUNTON*      CLOUDY    73  68  86 SE3       30.05S

$$

WVZ021-048>050-054>055-231500-
EASTERN WEST VIRGINIA PANHANDLE

CITY           SKY/WX    TMP DP  RH WIND       PRES   REMARKS
MARTINSBURG    CLOUDY    69  63  81 E6        30.03S
PETERSBURG*    NOT AVBL

$$

VAZ036>039-050-231500-
CENTRAL FOOTHILLS

CITY           SKY/WX    TMP DP  RH WIND       PRES   REMARKS
CHARLOTTESVILL CLOUDY    72  69  90 SE3       30.02R
ORANGE*        CLOUDY    72  68  88 E5        30.03S

$$

VAZ055>057-231500-
NORTH AND CENTRAL PIEDMONT

CITY           SKY/WX    TMP DP  RH WIND       PRES   REMARKS
FREDERICKSBRG* PTSUNNY   74  71  89 E5        30.01S
STAFFORD*      CLOUDY    72  72 100 E6        30.06S

$$

NCZ024-NYZ072-PAZ021-071-VAZ022-071-231500-
OTHER REGIONAL OBSERVATIONS

CITY           SKY/WX    TMP DP  RH WIND       PRES   REMARKS
NEW YORK CITY  CLOUDY    69  59  70 NE6       30.12R
PHILADELPHIA   HVY RAIN  68  64  87 NE7       30.07R FOG
PITTSBURGH     PTSUNNY   72  68  87 NW3       30.01F
ROANOKE        CLOUDY    75  69  81 CALM      30.03S
RICHMOND       CLOUDY    75  70  84 E8        30.00S
RALEIGH        PTSUNNY   79  70  74 SE5       29.98R

$$

ANZ530>537-231500-
MARINE OBSERVATIONS

STATION/POSITION TIME  TEMP    WIND        PRES
                       AIR SEA DIR/SP/G
                 (UTC) (F)     (DEG/KT/KT) (MB)
THOMAS PT LIGHT  1400   71 78   80/ 10/ 12 1017.3R
BALT KEY BRIDGE  1400   71      70/  9/ 12 1016.8S
COVE POINT       1400   72     100/  9/ 11 1016.2S
LEWISETTA        1400   74 78   90/ 12/ 14 1015.8R
SOLOMONS ISLAND  1400      80                N/A
PINEY POINT      1400          120/  9/ 12   N/A

$$




USA.gov is the U.S. government's official web portal to all federal, state and local government web resources and services.